User: anonymous   Login
Location: Unspecified
(0.0000°N, 0.0000°E)
Time: 21:46:36
(UTC+00:00)
Language:

COSMOS 2481 - Orbit

View from above orbital plane
View from above orbital plane
View from above satellite
View from above satellite

Ground track
Ground track

The orbit data is extracted from the following two-line orbital elements,

1 38733U 12041A   17117.77290708 +.00000034 +00000-0 +17563-3 0  9991
2 38733 082.4786 355.8220 0018613 140.8028 219.4409 12.42369997215401
Epoch (UTC): 27 April 2017 18:32:59
Eccentricity: 0.0018613
inclination: 82.4786°
perigee height: 1482 km
apogee height: 1511 km
right ascension of ascending node: 355.8220°
argument of perigee: 140.8028°
revolutions per day: 12.42369997
mean anomaly at epoch: 219.4409°
orbit number at epoch: 21540

The dashed part of the orbit path shows where the satellite is in the earth's shadow,  

DLR